Location: Budapest
(47.4979°N, 19.0402°E)
Time: 14:01:02
(UTC+02:00)

OTV 5 (USA 277) - Pass Details

Date: 15 October 2017
Orbit: 404 x 417 km, 43.0° (Epoch: 07 September)

Event Time Altitude Azimuth Distance (km) Brightness Sun altitude
Rises 18:31:42 0° 243° (WSW) 2,350 ? -6.8°
Reaches altitude 10° 18:33:56 10° 233° (SW) 1,489 ? -7.2°
Maximum altitude 18:36:58 32° 168° (SSE) 747 ? -7.7°
Drops below altitude 10° 18:40:00 10° 104° (ESE) 1,491 ? -8.2°
Enters shadow 18:40:00 10° 104° (ESE) 1,491 ? -8.2°
